Regional Weather Roundup
Issued by NWS Jackson, KY

Home | Current Version | Previous Version | Graphics & Text | Print | Product List | Glossary On
Versions: 1 2 3 4 5 6 7 8 9 10 11 12 13 14 15 16 17 18 19 20 21 22 23 24 25 26 27 28 29 30 31 32 33 34 35 36 37 38 39 40 41 42 43 44 45 46 47 48 49 50
000
ASUS43 KJKL 022211
RWRJKL

EAST KENTUCKY HOURLY WEATHER ROUNDUP
NATIONAL WEATHER SERVICE JACKSON KY
600 PM EDT TUE SEP 02 2014

NOTE: "FAIR" INDICATES FEW OR NO CLOUDS BELOW 12,000 FEET WITH
NO SIGNIFICANT WEATHER AND/OR OBSTRUCTIONS TO VISIBILITY.

* THESE REPORTS ARE NOT UNDER NWS QUALITY CONTROL AND MAY NOT
  REPORT WEATHER SUCH AS PRECIPITATION AND FOG.

KYZ079-080-083-085-087-088-110-112-115-119-120-022300
...EASTERN KENTUCKY...

CITY           SKY/WX    TMP DP  RH WIND       PRES   REMARKS
JACKSON        TSTM      73  71  93 W7        30.01R FOG
LONDON         TSTM      76  67  73 CALM      30.02R
SOMERSET*      TSTM      72  70  94 S3        30.00R
MONTICELLO*    PTSUNNY   71  69  93 CALM      30.00F THUNDER
MIDDLESBORO*   MOSUNNY   86  71  60 S7        29.97F HX  91
HARLAN APT*    CLOUDY    82  66  57 MISG      29.99S
BLACK MTN*       N/A     72  68  88 S6          N/A
PIKEVILLE APT* PTSUNNY   72  70  94 CALM      29.99S
BIG SANDY*     CLOUDY    74  73  95 CALM      29.97R
MOREHEAD APT*  PTCLDY    73  70  88 S10G16    29.98R
$$

KYZ035-036-041-042-044-050-067-078-099-022300
...CENTRAL KENTUCKY...

CITY           SKY/WX    TMP DP  RH WIND       PRES   REMARKS
MT STERLING*   CLOUDY    72  70  94 SW5       29.98S
FLEMING/MASON* PTSUNNY   77  72  83 CALM      29.96R
DANVILLE*      CLOUDY    70  70 100 SW5       29.97F
RICHMOND*      CLOUDY    72  68  88 CALM      29.97F
LEXINGTON      CLOUDY    78  71  79 S10       29.96F
FRANKFORT      PTSUNNY   83  72  69 SW9       29.92F
$$

KYZ091>093-OHZ055-061-077-WVZ005-015-034-035-042-022300
...SOUTHERN OHIO/WEST VIRGINIA...

CITY           SKY/WX    TMP DP  RH WIND       PRES   REMARKS
COVINGTON      PTSUNNY   75  72  90 CALM      29.95S
COLUMBUS       PTSUNNY   79  65  62 W9        29.93S
DAYTON         PTSUNNY   78  66  66 W9        29.95S
WILMINGTON     PTSUNNY   77  67  71 W8        29.94F
HUNTINGTON     TSTM      75  71  87 SW6       29.96R
CHARLESTON     TSTM      73  73 100 SW7       29.96R FOG
PINEVILLE*     RAIN      72  72  99 MISG      30.06S
BECKLEY        CLOUDY    67  63  87 S5        30.07F
BLUEFIELD      MOSUNNY   82  65  56 W5        30.08F
$$

VAZ002-007-008-TNZ017-027-036-066-071-022300
...SOUTHWEST VIRGINIA/EAST TENNESSEE...

CITY           SKY/WX    TMP DP  RH WIND       PRES   REMARKS
WISE*          PTSUNNY   81  64  57 S13       30.07F
JONESVILLE*      N/A     86  68  54 SW7       30.00F
ABINGDON*      SUNNY     86  66  51 W6        30.02F
BRISTOL        MOSUNNY   88  62  41 W9        29.99F
KNOXVILLE      PTSUNNY   88  68  51 SW13      29.96F HX  91
OAK RIDGE      MOSUNNY   89  70  53 S5G16     29.98F HX  94
CROSSVILLE     MOSUNNY   86  67  52 SW5       30.03F
NASHVILLE      PTSUNNY   88  72  58 SW9       29.94S THUNDER HX  94
$$

...KEY TO REMARKS...
VSB - VISIBILITY IN MILES
WCI - WIND CHILL INDEX
HX  - HEAT INDEX

$$


USA.gov is the U.S. government's official web portal to all federal, state and local government web resources and services.